FENGYUN 1C DEB

Satellite information

Favourite Embed

Satellite Type and Status

DEBRISIN ORBIT

Key statistics

Satellite FENGYUN 1C DEB at a glance.

Uptime

9714

Days in orbit

Revolutions

≈ 14.2

Per day

Orbit

SSO

Sun Synchronous Orbit

Inclination

98.8

Latest

Satellite identification and parameters

Extended collection of information and parameters for FENGYUN 1C DEB.

Object identification

Identified? True

Debris? True

Object name: FENGYUN 1C DEB

International designator: 1999-025AFQ

Object number (NORAD): 30453

Object ID (CCSDS): 30453

Country: PEOPLES REPUBLIC OF CHINA (PRC)

Current information (Y/N): Y

RCS size: SMALL

Orbital parameters

Period: 101.07 minutes

Inclination: 98.813 deg

SMA: 7187.47 km

Apoapsis: 892.468 km

Periapsis: 726.202 km

RAAN: 57.8844 deg

Eccentricy: 0.01156637

Argument of periapsis: 227.9289 deg

Mean anomaly: 160.5966 deg

Mean motion: 14.24750066 rev/day

Mean motion (dot): 0.00005917 rev/day2

B* drag term: 0.0023857252 1/REarth

Two-line elements (TLE)

Creation date: Dec. 12, 2025, 10:14 a.m.

Reference frame: TEME

Reference center: EARTH

Epoch: Dec. 12, 2025, 4:04 a.m. UTC

TLE line 0: 0 FENGYUN 1C DEB

TLE line 1: 1 30453U 99025AFQ 25346.16988647 .00005917 00000-0 23857-2 0 9998

TLE line 2: 2 30453 98.8130 57.8844 0115664 227.9289 160.5966 14.24750066972268

Live tracking on map

Real-time ground track for satellite FENGYUN 1C DEB.

In-orbit conjunctions

A list of the most updated potential collisions computed for object FENGYUN 1C DEB.

Target Orbit TCA Probability of collision Miss distance Type
COSMOS 2251 DEB LEO 2025-03-18 01:33:42 0.0003976545 199.0 (m) DEBRIS
CZ-6A DEB SSO 2025-02-20 13:05:53 0.0001883308 199.0 (m) DEBRIS
CZ-6A DEB LEO 2025-02-19 08:26:33 0.000225616 629.0 (m) DEBRIS
CZ-6A DEB LEO 2025-02-15 01:26:16 0.0001723409 588.0 (m) DEBRIS
CZ-6A DEB SSO 2024-06-04 22:21:39 0.0001352708 331.0 (m) DEBRIS

Associated space launch

Chinese polar orbiting meteorological satellite

FENGYUN 1C DEB was lifted into orbit during the mission ‘Long March 4B | Feng Yun 1C’, on board a Long March 4B space rocket.

The launch took place on May 10, 1999, 1:33 a.m. from Launch Complex 7.

For more information about the launch, click the button.

Launch to space Long March 4B | Feng Yun 1C
Long March 4B | Feng Yun 1C

Agency: N/A

Status: Launch Successful

Launch date: May 10, 1999, 1:33 a.m. UTC

Rocket: Long March 4B

Launch pad: Launch Complex 7

Location: Taiyuan Satellite Launch Center, People's Republic of China

...

Latest news about this satellite

There are no fresh news available about this satellite. Check back as we update our databases every day.


Newsletter sign-up

Weekly statistics, charts and insights to help you stay on top of the space industry.